[[{"header":{"parameterUnit":"m.s-1","parameterCategory":1,"la1":30.2991,"la2":30.254,"lo1":-89.0895,"lo2":-89.0444,"dy":0.0017,"dx":0.0017,"nx":28,"ny":28,"refTime":"2023-09-15T21:00:00:Z","depth":0,"parameterNumber":2,"parameterNumberName":"U-component_of_WINDS"},"data":[0,0,0,0,0,0,0,0,0,0,0,0,0,0,0,0,0,0,0,0,0,0,0,0,0,0,0,0,0,0,0,0,0,0,0,0,0,0,0,0,0,0,0,0,0,0,0,0,0,0,0,0,0,0,0,0,0,0,0.2188,0.2188,0,0.2162,0.2161,0.2161,0.2122,0.2121,0.212,0.212,0.2096,0.2096,0.2096,0,0,0,0,0,0,0,0,0,0,0,0,0,0.2205,0.2205,0.2188,0.2188,0.2187,0.2162,0.2161,0.2161,0.2122,0.2121,0.212,0.2119,0.2096,0.2096,0.2096,0,0,0,0,0,0,0,0,0,0,0,0,0,0.219,0.2205,0.2188,0.2165,0.2162,0.2162,0.2161,0.2161,0.2122,0.2121,0.212,0.2119,0.2096,0.2096,0.2096,0.2117,0,0,0.2096,0.2096,0,0,0,0,0,0,0,0,0.2191,0.219,0.2168,0.2166,0.2164,0.2144,0.2159,0.2146,0.2122,0.2138,0.212,0.2119,0.2113,0.2112,0.2109,0.2116,0.2115,0.2096,0.2096,0.2096,0.2096,0,0,0,0,0,0,0,0.2192,0.2191,0.2178,0.2168,0.2165,0.2156,0.2152,0.2156,0.2132,0.2136,0.2133,0.213,0.2112,0.2109,0.2108,0.2115,0.2096,0.2096,0.2096,0.2096,0.2135,0.2136,0,0,0,0,0,0,0.2197,0.2192,0.2179,0.2177,0.2175,0.2156,0.2153,0.2151,0.2131,0.2127,0.2131,0.2129,0.211,0.2108,0.2107,0.2128,0.2096,0.2096,0.2096,0.2134,0.2135,0.2136,0,0,0,0,0,0,0.2197,0.2196,0.218,0.2183,0.2181,0.2157,0.2156,0.2151,0.2149,0.2128,0.2123,0.2133,0.2109,0.2107,0.2114,0.2127,0.2096,0.2096,0.2133,0.2134,0.2136,0.2172,0,0,0,0,0,0,0.2198,0.2196,0.2204,0.2184,0.2181,0.2187,0.2157,0.2152,0.2149,0.2145,0.2128,0.2125,0.2108,0.2114,0.2114,0.2127,0.2096,0.2131,0.2133,0.2135,0.217,0.2175,0.2179,0,0,0,0,0,0.2198,0.2217,0.2205,0.2203,0.219,0.2188,0.2186,0.2165,0.215,0.2157,0.2143,0.2125,0.2126,0.2115,0.2115,0.2128,0.213,0.2133,0.2135,0.2168,0.2174,0.2179,0,0,0,0,0,0,0.2241,0.2214,0.22,0.2212,0.2202,0.2181,0.219,0.2173,0.2168,0.2164,0.214,0.2136,0.2146,0.2138,0.2126,0.2145,0.2125,0.2127,0.215,0.2156,0.2161,0.2162,0.2096,0,0,0,0,0,0.2251,0.2251,0.2228,0.2241,0.2237,0.2214,0.2213,0.2197,0.2186,0.2182,0.2169,0.2159,0.2157,0.2156,0.2153,0.2169,0.2163,0.2177,0.2182,0.2185,0.2188,0.2192,0.2197,0.2143,0.2143,0.2143,0,0,0.2274,0.2259,0.2261,0.2249,0.224,0.224,0.2211,0.2213,0.2213,0.2183,0.2187,0.2177,0.2165,0.2175,0.2179,0.2169,0.2201,0.2188,0.2192,0.2191,0.2195,0.22,0.2205,0.2145,0.2145,0.2144,0,0,0.2314,0.2304,0.2312,0.2302,0.2287,0.2271,0.2273,0.2254,0.2245,0.2249,0.2225,0.2225,0.2223,0.2214,0.2209,0.2243,0.2226,0.2243,0.2267,0.2272,0.2276,0.228,0.229,0.2294,0.2245,0.2245,0.2245,0,0.2344,0.2342,0.2319,0.2321,0.2316,0.2286,0.2294,0.2286,0.2272,0.2269,0.2257,0.225,0.2241,0.2247,0.2255,0.2253,0.2253,0.2245,0.2278,0.2281,0.2284,0.2293,0.2298,0.2247,0.2247,0.2247,0.2247,0,0.2379,0.2378,0.2387,0.2371,0.2367,0.2372,0.2348,0.2347,0.2332,0.2317,0.232,0.2307,0.2299,0.23,0.2286,0.2304,0.2297,0.2282,0.2261,0.2292,0.23,0.2303,0.225,0.225,0.2249,0.2248,0,0,0.2446,0.2414,0.2418,0.2409,0.2389,0.2388,0.2392,0.2382,0.2381,0.2372,0.2373,0.237,0.2354,0.2349,0.2333,0.2338,0.2363,0.2322,0.2321,0.2328,0.2379,0.239,0.2395,0.2351,0.2352,0.2352,0.238,0,0.2481,0.2483,0.2461,0.247,0.2467,0.2438,0.2441,0.2429,0.2415,0.2412,0.2397,0.2394,0.2375,0.2371,0.2374,0.2359,0.2372,0.2357,0.2351,0.2352,0.2354,0.2399,0.2411,0.2438,0.2383,0.2383,0.2384,0,0.2522,0.2512,0.252,0.2497,0.2495,0.2498,0.2486,0.2484,0.2469,0.2458,0.2451,0.2432,0.2433,0.2413,0.2414,0.2404,0.24,0.2392,0.2393,0.2391,0.2369,0.2397,0.2446,0.245,0.2389,0.2389,0.2388,0,0.2567,0.2557,0.2559,0.2553,0.2527,0.2529,0.2518,0.2502,0.2497,0.2487,0.2484,0.2475,0.247,0.2463,0.2442,0.243,0.2444,0.2424,0.2435,0.2436,0.2439,0.2439,0.2487,0.2439,0.2439,0.2439,0.2439,0,0.2608,0.2614,0.2579,0.258,0.2585,0.2559,0.2564,0.2551,0.2537,0.2535,0.251,0.2509,0.2482,0.2478,0.2461,0.2463,0.2462,0.2453,0.2448,0.2454,0.2455,0.2451,0.2448,0.244,0.244,0.2439,0.2439,0,0.2659,0.2636,0.2637,0.2611,0.2605,0.2609,0.2587,0.2587,0.2571,0.2569,0.2567,0.2542,0.2535,0.2514,0.2503,0.2491,0.2498,0.249,0.2502,0.2499,0.2511,0.2509,0.2557,0.2561,0.2512,0.2512,0.2513,0,0.2686,0.2689,0.2663,0.2659,0.2649,0.2644,0.2637,0.2612,0.2606,0.2588,0.259,0.2581,0.2573,0.2563,0.2545,0.2535,0.2526,0.2543,0.2525,0.253,0.2524,0.2524,0.2523,0.2547,0.2548,0.2548,0.2549,0,0.2735,0.2723,0.2714,0.2702,0.2695,0.2684,0.2672,0.267,0.2641,0.2636,0.2628,0.2621,0.2608,0.2599,0.2586,0.2576,0.2557,0.2555,0.2556,0.2562,0.2568,0.2563,0.2511,0.2554,0.2553,0.2553,0.2553,0.2552,0.2773,0.2774,0.2754,0.2746,0.2733,0.2722,0.2719,0.2702,0.2695,0.2681,0.2666,0.2659,0.2643,0.2623,0.2613,0.2608,0.2598,0.2601,0.2602,0.2602,0.2605,0.257,0.2606,0.2605,0.2605,0.2605,0.2605,0,0.2819,0.2805,0.2797,0.2779,0.2772,0.2754,0.2739,0.2734,0.2727,0.2713,0.2704,0.2694,0.2684,0.2664,0.2652,0.2652,0.2643,0.265,0.2649,0.2646,0.2615,0.2614,0.2657,0.2657,0.2657,0.2657,0.2657,0.2657,0.2842,0.2841,0.2826,0.2818,0.2804,0.2796,0.2788,0.2777,0.2765,0.2754,0.2746,0.2732,0.2715,0.2701,0.2691,0.2686,0.2682,0.2691,0.2683,0.2654,0.2649,0.2644,0.2643,0.2691,0.2691,0.2714,0.2714,0.2715]},{"header":{"parameterUnit":"m.s-1","parameterCategory":1,"la1":30.2991,"la2":30.254,"lo1":-89.0895,"lo2":-89.0444,"dy":0.0017,"dx":0.0017,"nx":28,"ny":28,"refTime":"2023-09-15T21:00:00:Z","depth":0,"parameterNumber":3,"parameterNumberName":"V-component_of_WINDS"},"data":[0,0,0,0,0,0,0,0,0,0,0,0,0,0,0,0,0,0,0,0,0,0,0,0,0,0,0,0,0,0,0,0,0,0,0,0,0,0,0,0,0,0,0,0,0,0,0,0,0,0,0,0,0,0,0,0,0,0,2.6888,2.6886,0,2.6756,2.6754,2.6753,2.6596,2.6593,2.6591,2.6589,2.6451,2.645,2.6449,0,0,0,0,0,0,0,0,0,0,0,0,0,2.7002,2.7001,2.6888,2.6886,2.6885,2.6756,2.6754,2.6752,2.6596,2.6593,2.659,2.6588,2.6452,2.645,2.6448,0,0,0,0,0,0,0,0,0,0,0,0,0,2.692,2.7001,2.6888,2.6791,2.6781,2.6756,2.6754,2.6752,2.6597,2.6593,2.6589,2.6586,2.6452,2.645,2.6448,2.6507,0,0,2.6442,2.6441,0,0,0,0,0,0,0,0,2.6925,2.6916,2.6807,2.6798,2.6787,2.6688,2.6744,2.667,2.6598,2.6667,2.6589,2.6584,2.6533,2.6524,2.6507,2.6501,2.6495,2.6442,2.644,2.6439,2.6439,0,0,0,0,0,0,0,2.693,2.692,2.6835,2.6806,2.6793,2.6753,2.6738,2.6729,2.6622,2.666,2.6649,2.6635,2.6527,2.651,2.6503,2.6493,2.6442,2.644,2.6438,2.6438,2.6526,2.6529,0,0,0,0,0,0,2.6951,2.6926,2.684,2.6831,2.6848,2.6754,2.6737,2.6724,2.6621,2.6602,2.6639,2.6629,2.6515,2.6505,2.6497,2.6557,2.6439,2.6437,2.6436,2.6522,2.6526,2.653,0,0,0,0,0,0,2.6954,2.6945,2.6845,2.6876,2.686,2.6756,2.6743,2.6723,2.6705,2.6605,2.6585,2.6641,2.6512,2.65,2.6505,2.655,2.6436,2.6435,2.6518,2.6523,2.6528,2.6679,0,0,0,0,0,0,2.6958,2.6947,2.6969,2.6877,2.6859,2.6857,2.6746,2.6723,2.6703,2.6688,2.6602,2.6584,2.6508,2.651,2.6503,2.6545,2.6433,2.6513,2.652,2.6527,2.6669,2.6689,2.6705,0,0,0,0,0,2.6963,2.7017,2.6971,2.6961,2.6884,2.686,2.6849,2.6761,2.6707,2.6727,2.6662,2.6587,2.6547,2.6511,2.6503,2.6545,2.651,2.6518,2.6526,2.6661,2.6685,2.6705,0,0,0,0,0,0,2.7116,2.7003,2.6951,2.6977,2.6929,2.6833,2.6856,2.6789,2.6755,2.6743,2.6635,2.6617,2.6634,2.659,2.6553,2.6595,2.6517,2.6524,2.6623,2.6645,2.6662,2.6671,2.6431,0,0,0,0,0,2.7153,2.7143,2.7045,2.7077,2.7056,2.6961,2.6947,2.6884,2.6829,2.6808,2.6743,2.6693,2.6668,2.6655,2.6627,2.6664,2.6641,2.6688,2.6706,2.6721,2.6728,2.674,2.6759,2.6557,2.6557,2.6557,0,0,2.7229,2.7166,2.7166,2.7106,2.7062,2.7052,2.6945,2.694,2.6931,2.6807,2.6806,2.6758,2.6695,2.6715,2.6721,2.6679,2.6779,2.6732,2.6745,2.6742,2.6751,2.677,2.6787,2.6562,2.6561,2.6561,0,0,2.7361,2.7314,2.7334,2.7292,2.7226,2.7163,2.7168,2.7082,2.7045,2.7044,2.6949,2.6938,2.6899,2.6856,2.683,2.6947,2.6874,2.6941,2.7034,2.7048,2.7064,2.7077,2.7115,2.7131,2.6948,2.6949,2.6949,0,2.7463,2.7446,2.7354,2.7354,2.7329,2.7217,2.7236,2.72,2.7128,2.7113,2.7068,2.7016,2.6965,2.6973,2.7001,2.6985,2.6985,2.6949,2.7069,2.7082,2.7093,2.7128,2.7143,2.6957,2.6956,2.6955,2.6954,0,2.7573,2.7563,2.7587,2.7521,2.7499,2.751,2.7417,2.7407,2.7346,2.7287,2.7286,2.7222,2.7178,2.7176,2.7117,2.7175,2.715,2.7089,2.7007,2.7122,2.7153,2.7166,2.6969,2.6966,2.6963,2.6961,0,0,2.7796,2.7679,2.7689,2.7656,2.7575,2.7565,2.757,2.7527,2.7519,2.7474,2.7473,2.7443,2.7385,2.7355,2.729,2.7303,2.7396,2.7239,2.7236,2.7268,2.7452,2.7496,2.7514,2.7349,2.7351,2.7353,2.7456,0,2.7911,2.7911,2.7828,2.7852,2.784,2.7734,2.7737,2.7687,2.7633,2.7613,2.7553,2.7532,2.7459,2.744,2.7448,2.7383,2.7431,2.7375,2.7344,2.7344,2.736,2.753,2.7577,2.7677,2.7468,2.747,2.7472,0,2.8044,2.8006,2.8029,2.7946,2.7937,2.7942,2.7895,2.788,2.7821,2.778,2.7747,2.7673,2.767,2.7596,2.7588,2.7552,2.7535,2.7501,2.7503,2.7494,2.7413,2.7522,2.7707,2.7721,2.7491,2.7489,2.7488,0,2.82,2.8155,2.8162,2.8138,2.8042,2.8048,2.8008,2.7945,2.7925,2.7884,2.7869,2.783,2.7807,2.7777,2.7694,2.7648,2.7695,2.7615,2.7658,2.766,2.767,2.767,2.7851,2.7666,2.7666,2.7665,2.7665,0,2.8334,2.8351,2.823,2.8234,2.8249,2.8154,2.8172,2.8122,2.8067,2.8058,2.7965,2.7958,2.785,2.7831,2.7766,2.7768,2.776,2.7725,2.7706,2.7731,2.7735,2.7715,2.7705,2.7669,2.7668,2.7668,2.7667,0,2.8509,2.8429,2.8429,2.8339,2.8317,2.8332,2.8253,2.8252,2.8193,2.8182,2.8175,2.808,2.8053,2.7968,2.7919,2.7875,2.7895,2.7863,2.7915,2.7903,2.795,2.7945,2.8122,2.8139,2.7947,2.7949,2.7951,0,2.8599,2.8609,2.852,2.8508,2.8472,2.8454,2.8432,2.8339,2.832,2.8253,2.826,2.8226,2.8192,2.8153,2.8079,2.8041,2.8005,2.807,2.7998,2.8022,2.8001,2.8,2.7999,2.8084,2.8087,2.8089,2.8091,0,2.8765,2.8724,2.8697,2.8657,2.8634,2.8597,2.8555,2.855,2.8445,2.8429,2.84,2.8374,2.8324,2.829,2.824,2.8197,2.8126,2.8114,2.8121,2.8145,2.8173,2.8155,2.7953,2.811,2.8108,2.8106,2.8105,2.8105,2.8896,2.89,2.8837,2.881,2.8769,2.8731,2.8725,2.8665,2.864,2.8592,2.8539,2.8515,2.8454,2.838,2.8342,2.8321,2.8283,2.8295,2.8297,2.8301,2.8311,2.818,2.8312,2.8312,2.8311,2.8311,2.831,0,2.9054,2.9009,2.8985,2.8929,2.8907,2.8844,2.8794,2.8779,2.876,2.871,2.868,2.8645,2.8612,2.8536,2.8495,2.8492,2.8458,2.8484,2.8481,2.8472,2.8349,2.8345,2.8512,2.8512,2.8512,2.8512,2.8512,2.8512,2.9133,2.9135,2.9088,2.9068,2.9022,2.8999,2.8975,2.8939,2.8898,2.8865,2.8836,2.8788,2.8726,2.868,2.8645,2.8624,2.8611,2.8647,2.8615,2.85,2.8481,2.8463,2.8458,2.8646,2.8647,2.8739,2.874,2.874]}]]